| time (UTC) | temp F | wind direction | speed knots | gust knots | rain 1hr in | rain 24hr in | rain mn in | humidity % | barometer mb |
| 20260502181201 | 67 | 225 | 7.0 | 9.6 | 0.00 | 0.00 | 0.00 | 32 | 1013.8 |
| 20260502162201 | 71 | 226 | 10.4 | 13.9 | 0.00 | 0.00 | 0.00 | 30 | 1014.0 |
| 20260502161101 | 72 | 290 | 7.0 | 13.0 | 0.00 | 0.00 | 0.00 | 30 | 1014.1 |
| 20260502151602 | 73 | 211 | 9.6 | 13.9 | 0.00 | 0.00 | 0.00 | 28 | 1014.6 |
| 20260502150501 | 74 | 218 | 10.4 | 14.8 | 0.00 | 0.00 | 0.00 | 28 | 1014.4 |
| 20260502130400 | 74 | 200 | 9.6 | 13.0 | 0.00 | 0.00 | 0.00 | 26 | 1015.8 |
| 20260502123100 | 74 | 232 | 10.4 | 14.8 | 0.00 | 0.00 | 0.00 | 26 | 1016.3 |
| 20260502122000 | 74 | 203 | 12.2 | 17.4 | 0.00 | 0.00 | 0.00 | 26 | 1016.5 |
| 20260502120900 | 74 | 218 | 11.3 | 14.8 | 0.00 | 0.00 | 0.00 | 29 | 1016.4 |
| 20260502114701 | 74 | 225 | 8.7 | 13.0 | 0.00 | 0.00 | 0.00 | 31 | 1016.8 |
| 20260502113600 | 73 | 168 | 8.7 | 11.3 | 0.00 | 0.00 | 0.00 | 30 | 1016.8 |
| 20260502112501 | 73 | 189 | 9.6 | 16.5 | 0.00 | 0.00 | 0.00 | 31 | 1017.0 |
| 20260502111400 | 73 | 173 | 9.6 | 13.0 | 0.00 | 0.00 | 0.00 | 32 | 1017.2 |
| 20260502110300 | 73 | 169 | 8.7 | 9.6 | 0.00 | 0.00 | 0.00 | 31 | 1017.2 |
| 20260502105200 | 72 | 165 | 9.6 | 12.2 | 0.00 | 0.00 | 0.00 | 31 | 1017.5 |
| 20260502104100 | 72 | 173 | 11.3 | 14.8 | 0.00 | 0.00 | 0.00 | 34 | 1017.7 |
| 20260502102959 | 72 | 175 | 9.6 | 12.2 | 0.00 | 0.00 | 0.00 | 35 | 1017.6 |
| 20260502101859 | 72 | 178 | 9.6 | 16.5 | 0.00 | 0.00 | 0.00 | 35 | 1017.8 |
| 20260502100801 | 71 | 163 | 7.0 | 11.3 | 0.00 | 0.00 | 0.00 | 36 | 1017.8 |
| 20260502091259 | 70 | 174 | 7.0 | 8.7 | 0.00 | 0.00 | 0.00 | 40 | 1018.5 |
| 20260502090200 | 69 | 173 | 7.0 | 10.4 | 0.00 | 0.00 | 0.00 | 40 | 1018.9 |
| 20260502071200 | 64 | 175 | 6.1 | 7.8 | 0.00 | 0.00 | 0.00 | 46 | 1019.7 |
| 20260502070059 | 63 | 147 | 3.5 | 7.0 | 0.00 | 0.00 | 0.00 | 51 | 1019.9 |
| 20260502065000 | 62 | 184 | 5.2 | 7.0 | 0.00 | 0.00 | 0.00 | 51 | 1020.0 |
| 20260502063858 | 61 | 183 | 4.3 | 6.1 | 0.00 | 0.00 | 0.00 | 52 | 1020.0 |
| 20260502062758 | 59 | 163 | 3.5 | 7.0 | 0.00 | 0.00 | 0.00 | 54 | 1020.2 |
| 20260502061658 | 58 | 161 | 2.6 | 4.3 | 0.00 | 0.00 | 0.00 | 56 | 1020.5 |
| 20260502060558 | 55 | 166 | 1.7 | 1.7 | 0.00 | 0.00 | 0.00 | 59 | 1020.5 |
| 20260502054400 | 53 | 181 | 0.9 | 3.5 | 0.00 | 0.00 | 0.00 | 66 | 1020.7 |
| 20260502053258 | 51 | 305 | 0.9 | 1.7 | 0.00 | 0.00 | 0.00 | 70 | 1020.8 |
| 20260502052159 | 49 | 314 | 0.0 | 1.7 | 0.00 | 0.00 | 0.00 | 73 | 1021.0 |
| 20260502051059 | 47 | 303 | 0.0 | 1.7 | 0.00 | 0.00 | 0.00 | 75 | 1021.0 |
| 20260502045958 | 45 | 166 | 0.9 | 1.7 | 0.00 | 0.00 | 0.00 | 83 | 1021.0 |
| 20260502043758 | 41 | 135 | 0.0 | 0.9 | 0.00 | 0.00 | 0.00 | 82 | 1021.0 |
| 20260502041558 | 39 | 181 | 0.0 | 1.7 | 0.00 | 0.00 | 0.00 | 82 | 1021.2 |
| 20260502040458 | 39 | 159 | 0.9 | 1.7 | 0.00 | 0.00 | 0.00 | 81 | 1021.2 |
| 20260502035357 | 39 | 163 | 0.9 | 1.7 | 0.00 | 0.00 | 0.00 | 81 | 1021.2 |
| 20260502034257 | 39 | 143 | 1.7 | 1.7 | 0.00 | 0.00 | 0.00 | 81 | 1021.3 |
| 20260502033157 | 39 | 135 | 0.9 | 1.7 | 0.00 | 0.00 | 0.00 | 80 | 1021.4 |
| 20260502032057 | 39 | 135 | 0.9 | 1.7 | 0.00 | 0.00 | 0.00 | 80 | 1021.4 |
| 20260502030957 | 39 | 135 | 1.7 | 1.7 | 0.00 | 0.00 | 0.00 | 80 | 1021.6 |
| 20260502024757 | 40 | 135 | 1.7 | 1.7 | 0.00 | 0.00 | 0.00 | 80 | 1021.7 |
| 20260502023657 | 40 | 135 | 1.7 | 1.7 | 0.00 | 0.00 | 0.00 | 79 | 1021.8 |
| 20260502022557 | 40 | 135 | 1.7 | 1.7 | 0.00 | 0.00 | 0.00 | 78 | 1021.8 |
| 20260502020358 | 41 | 0 | 0.0 | 0.0 | 0.00 | 0.00 | 0.00 | 77 | 1022.0 |
| 20260502015257 | 41 | 0 | 0.0 | 0.0 | 0.00 | 0.00 | 0.00 | 76 | 1022.2 |
| 20260502014157 | 42 | 0 | 0.0 | 0.0 | 0.00 | 0.00 | 0.00 | 76 | 1022.4 |
| 20260502011957 | 42 | 138 | 1.7 | 1.7 | 0.00 | 0.00 | 0.00 | 75 | 1022.6 |
| 20260502010856 | 43 | 135 | 1.7 | 1.7 | 0.00 | 0.00 | 0.00 | 74 | 1022.6 |
| 20260502005756 | 43 | 135 | 0.9 | 1.7 | 0.00 | 0.00 | 0.00 | 74 | 1022.7 |
| 20260502001356 | 44 | 155 | 1.7 | 1.7 | 0.00 | 0.00 | 0.00 | 72 | 1022.8 |
| 20260502000256 | 44 | 171 | 0.9 | 1.7 | 0.00 | 0.00 | 0.00 | 71 | 1023.1 |
| 20260501235156 | 45 | 181 | 0.9 | 1.7 | 0.00 | 0.00 | 0.00 | 71 | 1023.2 |
| 20260501234056 | 45 | 181 | 0.9 | 1.7 | 0.00 | 0.00 | 0.00 | 70 | 1023.4 |
| 20260501232956 | 46 | 181 | 0.9 | 1.7 | 0.00 | 0.00 | 0.00 | 65 | 1023.3 |
| 20260501231856 | 46 | 181 | 0.0 | 1.7 | 0.00 | 0.00 | 0.00 | 64 | 1023.4 |
| 20260501230756 | 47 | 181 | 0.0 | 1.7 | 0.00 | 0.00 | 0.00 | 63 | 1023.5 |
| 20260501224556 | 47 | 0 | 0.0 | 0.0 | 0.00 | 0.00 | 0.00 | 61 | 1023.7 |
| 20260501223456 | 48 | 0 | 0.0 | 0.0 | 0.00 | 0.00 | 0.00 | 61 | 1023.7 |
| 20260501221255 | 49 | 181 | 0.0 | 1.7 | 0.00 | 0.00 | 0.00 | 60 | 1023.7 |
| 20260501215055 | 50 | 181 | 0.9 | 1.7 | 0.00 | 0.00 | 0.00 | 59 | 1023.9 |
| 20260501213956 | 50 | 181 | 0.0 | 1.7 | 0.00 | 0.00 | 0.00 | 57 | 1023.9 |
| 20260501211755 | 51 | 181 | 0.9 | 1.7 | 0.00 | 0.00 | 0.00 | 54 | 1024.0 |
| 20260501210655 | 52 | 146 | 0.9 | 1.7 | 0.00 | 0.00 | 0.00 | 53 | 1024.1 |
| 20260501205555 | 53 | 135 | 0.9 | 1.7 | 0.00 | 0.00 | 0.00 | 52 | 1024.0 |
| 20260501204455 | 54 | 119 | 0.9 | 1.7 | 0.00 | 0.00 | 0.00 | 51 | 1023.9 |
| 20260501203355 | 55 | 99 | 0.9 | 1.7 | 0.00 | 0.00 | 0.00 | 46 | 1024.1 |
| 20260501201155 | 56 | 131 | 0.0 | 1.7 | 0.00 | 0.00 | 0.00 | 44 | 1024.1 |
| 20260501200055 | 57 | 147 | 0.9 | 2.6 | 0.00 | 0.00 | 0.00 | 43 | 1024.2 |
| 20260501193855 | 59 | 135 | 0.9 | 1.7 | 0.00 | 0.00 | 0.00 | 41 | 1024.3 |
| 20260501192756 | 60 | 197 | 1.7 | 3.5 | 0.00 | 0.00 | 0.00 | 41 | 1024.3 |
| 20260501191656 | 61 | 170 | 1.7 | 3.5 | 0.00 | 0.00 | 0.00 | 40 | 1024.4 |
| 20260501190554 | 62 | 221 | 1.7 | 2.6 | 0.00 | 0.00 | 0.00 | 38 | 1024.4 |
| 20260501185454 | 63 | 196 | 2.6 | 3.5 | 0.00 | 0.00 | 0.00 | 36 | 1024.4 |
| 20260501183254 | 65 | 215 | 3.5 | 6.1 | 0.00 | 0.00 | 0.00 | 32 | 1024.3 |
| 20260501182156 | 65 | 214 | 2.6 | 3.5 | 0.00 | 0.00 | 0.00 | 31 | 1024.3 |